Location: Juzet
(42.9779°N, 0.7597°E)
Time: 19:13:30
(UTC+00:00)

Cosmos 921 Rocket - Pass Details

Date: 14 July 2020
Orbit: 572 x 631 km, 75.8° (Epoch: 12 August)

Event Time Altitude Azimuth Distance (km) Brightness Sun altitude
Rises 02:06:46 0° 346° (NNW) 2,895 7.2 -19.4°
Reaches altitude 10° 02:09:05 10° 350° (N) 1,976 6.3 -19.2°
Maximum altitude 02:13:25 56° 70° (ENE) 720 3.6 -18.8°
Enters shadow 02:17:10 13° 147° (SSE) 1,744 5.1 -18.4°
